Showing default

KINEIS-1A, 60084

Orbit data source: Space-Track

KINEIS-1A, 60084 is a French payload satellite in SSO that was launched on Thu, 20 Jun 2024 UTC via an ELECTRON launch vehicle from the Rocket Lab Launch Complex (RLLC). Payload-class satellites include a variety of spacecraft equipped with specific instruments for various scientific and technological missions. These include communications satellites like Starlink; space stations such as the ISS; scientific satellites like the Hubble; Earth observation satellites from companies like Planet Labs, Umbra, and HawkEye 360; GPS; miniature CubeSats for education and research; and military/defense satellites.

Loading next visibility...
Identifier
60084, 2024-114F
Orbit
SSO
Last TLE update
7 hours ago
Origin
Manufacturer
KINEIS
Mission
Operational Commercial Communications
Bus & Motor
CUBESAT 16U, Unknown motor
Mass
28 kg wet, 28 kg dry
Launch date (UTC)
2024-06-20 (1 year ago)
Launch vehicle
ELECTRON
Launch site
Rocket Lab Launch Complex (RLLC)
Object type
Payload
Rocket body
Debris
Shape & HBR
Box + 2 Pan + 1 Ant, 1.6 m
Radar Cross Section
0.229 m², Medium (>0.1 m² and < 1m²)

Expand to show TLE details & history

TLE from 7 hours ago
0 KINEIS-1A
1 60084U 24114F   25183.84484385  .00001051  00000-0  14679-3 0  9990
2 60084  98.0094 204.3580 0003787 156.0301 204.1087 14.79743207 55717
Epoch: 2025-07-02T20:16Z
TLE epoch observation values (Epoch: 2025-07-02T20:16:34.508Z)
Latitude
-0.00007°
Longitude
-20.90588°
Altitude
635.576 km
Speed
7.539 km/s
True Right ascension
13h 37m 25s
True Declination
0° 00' 00"
Sunlit
Object was in daylight at epoch
Visualization orbit readout
Latitude
-29.35666°
Longitude
154.88811°
Altitude
639.618 km
Speed
7.538 km/s
Apparent Right ascension
02h 17m 00s
Apparent Declination
-35° 14' 53"
Sunlit
Object is in daylight
Visualization observer readout
Local Sidereal Time
15:27:53
Azimuth
77.192° E
Elevation
-75.231°
Doppler factor
1
Orbital elements
Apogee altitude
629.834 km
Perigee altitude
624.528 km
Semi-major axis
7,005.318 km
Eccentricity
0.00038
Inclination
98.0094°
RAAN
204.358°
Arg. of periapsis
156.0301°
True anomaly
Unknown
Mean anomaly
204.1087°
Eccentric anomaly
Unknown
Mean motion
3.7017 °/min
Orbital period
97.25 mins
BSTAR
0.00014679
Loading maneuver chart data...
Loading SW <> Apogee altitude chart data...
Loading historical data...
Loading historical data...
Loading historical data...
Loading historical data...
Loading historical data...
Loading historical data...
Loading historical data...

KINEIS-1A Visibility forecast

Observer location: undefined°, undefined°

Span
Click to sort rows by Start time (UTC) header in descending order
Start Az.
Max El. time (UTC)
Max El. Az.
Max El.
End time (UTC)
End Az.
4 mins2025-07-03 13:06:39.808Z64.604° ENE2025-07-03 13:08:39.808Z94.018° ESE13.98°2025-07-03 13:10:39.808Z122.592° SE
6 mins2025-07-03 14:42:39.808Z350.029° N2025-07-03 14:44:39.808Z305.575° NW35.473°2025-07-03 14:48:39.808Z216.399° SW
6 mins2025-07-04 01:37:39.808Z184.431° SSW2025-07-04 01:39:39.808Z229.949° WSW40.93°2025-07-04 01:43:39.808Z338.856° N
|